x

Columbia River Bar - 20nm West Of Columbia River Mouth (46029) Wave Buoy

8:50 - Thu 25th Aug 2016 All times are PDT. -7 hours from GMT.

  • Sig Wave height 5.9ft
  • Swell Direction
  • Peak Period 8s
  • Average Period 6s
  • Wind
    20mph, 22mph gusts
  • Sea Temp 57°f
  • Ar Temp 61°f
  • Sea Pressure 1014.4mb
  • Columbia River Bar - 20nm West Of Columbia River Mouth
  • Columbia River Bar - 20nm West Of Columbia River Mouth

More Historic Weather Station data

Upgrade to MSW Pro to gain access to the past 30 days of data for over 8000 Wavebouys and Weather Stations around the globe.

Join Pro

Comparision Forecast

View Surf forecast
   
Qui 08/25 8:50 6ft 8s 6s 20 22 mph 1014.4mb 57f 61f
7:50 5ft 8s 6s 18 22 mph 1014.2mb 58f 61f
6:50 4.5ft 9s 6s 13 16 mph 1014.6mb 58f 61f
5:50 4.5ft 10s 6s 13 16 mph 1015.1mb 58f 61f
4:50 4.5ft 8s 6s 18 20 mph 1015.6mb 58f 62f
3:50 3.5ft 10s 6s 18
mph
1016.4mb 58f 62f
2:50 4ft 10s 6s 16 18 mph 1017mb 60f 61f
1:50 3.5ft 10s 6s 13 16 mph 1017.5mb 60f 62f
12:50 4.5ft 10s 6s 11
mph
1017.9mb 60f 61f
11:50 4ft 10s 6s 4 7 mph 1018.4mb 59f 61f
10:50 4ft 10s 6s 7 9 mph 1018.8mb 58f 61f
9:50 4.5ft 7s 6s 4
mph
1018.9mb 58f 61f
8:50 4.5ft 7s 6s 4 7 mph 1019.1mb 57f 60f
7:50 4ft 7s 6s 11 13 mph 1019.2mb 57f 60f
6:50 3.5ft 8s 6s 9 11 mph 1018.7mb 57f 59f
5:50 4ft 8s 6s 7
mph
1018.6mb 58f 59f
4:50 3.5ft 8s 6s 9 11 mph 1018.9mb 56f 59f
3:50 3.5ft 8s 5s 11 13 mph 1019mb 56f 59f
2:50 3.5ft 8s 6s 11 13 mph 1019.1mb 56f 58f
1:50 3.5ft 8s 6s 13
mph
1019.1mb 56f 58f
12:50 3.5ft 7s 5s 13
mph
1019.4mb 56f 59f
Qua 08/24 11:50 3.5ft 7s 5s 16 18 mph 1019.7mb 57f 59f
10:50 3.5ft 7s 5s 13 16 mph 1020.2mb 57f 60f
9:50 3.5ft 8s 5s 16 18 mph 1020.2mb 57f 61f
7:50 4ft 8s 5s 18 22 mph 1019.7mb 57f 61f
6:50 4.5ft 7s 5s 16 18 mph 1019.7mb 58f 61f
5:50 4ft 7s 5s 16 18 mph 1019.9mb 58f 60f
4:50 4ft 7s 5s 16 18 mph 1020.2mb 58f 60f
3:50 3.5ft 8s 5s 16 18 mph 1020.8mb 58f 59f
2:50 3.5ft 7s 5s 16 18 mph 1021.3mb 57f 59f
1:50 3.5ft 7s 5s 16 18 mph 1021.7mb 57f 59f
12:50 3.5ft 6s 5s 16 18 mph 1022.3mb 57f 58f
11:50 3.5ft 6s 5s 13 16 mph 1022.7mb 57f 58f
10:50 3.5ft 6s 5s 16
mph
1022.9mb 57f 57f
9:50 3.5ft 6s  -  11 13 mph 1023mb 58f 57f
8:50 3.5ft 7s 5s 13 16 mph 1022.9mb 57f 57f
7:50 3.5ft 7s 5s 11 13 mph 1022.8mb 57f 57f
6:50 4ft 7s 5s 13 16 mph 1022.7mb 57f 57f
5:50 3.5ft 6s 5s 13 16 mph 1022.3mb 57f 57f
4:50 3.5ft 7s 5s 13 16 mph 1022.2mb 57f 57f
2:50 3ft 7s 5s 11 13 mph 1022.4mb 57f 57f
1:50 3ft 15s 5s 11 13 mph 1022.6mb 57f 57f
12:50 3ft 15s 5s 9 11 mph 1023mb 58f 57f
Ter 08/23 11:50 3.5ft 15s 5s 11 13 mph 1023.1mb 58f 58f
10:50 3.5ft 7s 5s 13
mph
1022.9mb 57f 58f
9:50 3.5ft 7s 5s 13 16 mph 1023.1mb 57f 58f
8:50 3.5ft 16s 5s 13 16 mph 1022.9mb 57f 58f
7:50 3.5ft 7s 5s 13 16 mph 1022.4mb 57f 58f
6:50 3.5ft 7s 5s 16 18 mph 1022.3mb 57f 59f
5:50 3.5ft 8s 5s 16 18 mph 1022.2mb 57f 58f
4:50 3.5ft 8s 5s 16 18 mph 1022.6mb 57f 57f
3:50 4ft 8s 5s 18 20 mph 1022.7mb 59f 56f
2:50 3.5ft 15s 5s 18 20 mph 1022.8mb 58f 55f
1:50 3.5ft 8s 5s 20 22 mph 1023mb 57f 54f
12:50 3.5ft 15s 5s 18 22 mph 1023.1mb 57f 54f
11:50 3.5ft 8s 5s 16 18 mph 1023.1mb 57f 53f
10:50 3.5ft 8s 5s 16 18 mph 1023.1mb 57f 53f
9:50 4.5ft 8s 6s 13 16 mph 1023mb 56f 53f
8:50 4ft 8s 5s 11 13 mph 1022.7mb 57f 53f
7:50 4.5ft 8s 6s 11 16 mph 1022.3mb 57f 53f
6:50 4.5ft 8s 5s 11 13 mph 1021.9mb 57f 53f
5:50 4ft 8s 5s 11 16 mph 1021.2mb 57f 54f
4:50 4.5ft 8s 6s 13 16 mph 1021mb 57f 55f
3:50 4.5ft 8s 6s 11 16 mph 1021.1mb 57f 55f
2:50 3.5ft 8s 5s 11 16 mph 1021mb 57f 56f
1:50 4ft 8s 5s 16 18 mph 1021.1mb 58f 57f
12:50 4ft 8s 5s 13 18 mph 1020.9mb 59f 58f
Seg 08/22 11:50 4ft 7s 5s 13 18 mph 1020.9mb 58f 58f
10:50 4.5ft 8s 5s 16 18 mph 1020.9mb 59f 58f
9:50 4ft 6s 5s 16 18 mph 1021.1mb 59f 58f
8:50 4ft 8s 5s 18 20 mph 1020.5mb 59f 59f
7:50 4ft 8s 5s 18 22 mph 1020.1mb 59f 59f
6:50 3.5ft 7s 5s 16 18 mph 1020.1mb 59f 59f
5:50 4.5ft 6s 6s 13 16 mph 1020.2mb 59f 59f
4:50 4.5ft 8s 6s 13 16 mph 1020.4mb 60f 59f
3:50 4.5ft 7s 6s 9
mph
1020.7mb 59f 60f
2:50 4ft 7s 6s 7 9 mph 1020.9mb 59f 59f
1:50 4.5ft 7s 6s 7
mph
1020.9mb 59f 59f
12:50 4.5ft 7s 6s 9 11 mph 1021.1mb 59f 59f
11:50 4.5ft 8s 6s 7 9 mph 1021.2mb 58f 59f
10:50 4.5ft 8s 6s 9
mph
1021mb 58f 59f
9:50 4.5ft 7s 6s 9 11 mph 1020.6mb 58f 58f
8:50 4.5ft 8s 6s 7 9 mph 1020.3mb 58f 58f
7:50 5ft 8s 6s 7 9 mph 1020mb 58f 58f
6:50 4.5ft 7s 6s 9
mph
1019.5mb 58f 58f
5:50 5ft 7s 6s 9 11 mph 1019.1mb 58f 58f